| time (UTC) | temp F | wind direction | speed MPH | gust MPH | rain 1hr in | rain 24hr in | rain mn in | humidity % | barometer mb |
| 20260903221600 | 79 | 209 | 1.0 | 6.0 | 0.00 | 0.00 | 0.00 | 26 | 1029.6 |
| 20260903220058 | 80 | 176 | 0.0 | 4.0 | 0.00 | 0.00 | 0.00 | 25 | 1029.8 |
| 20260903214603 | 79 | 192 | 0.0 | 5.0 | 0.00 | 0.00 | 0.00 | 25 | 1030.0 |
| 20260903213108 | 80 | 173 | 0.0 | 7.0 | 0.00 | 0.00 | 0.00 | 26 | 1029.9 |
| 20260903211554 | 79 | 195 | 1.0 | 7.0 | 0.00 | 0.00 | 0.00 | 26 | 1030.0 |
| 20260903210113 | 78 | 153 | 2.0 | 4.0 | 0.00 | 0.00 | 0.00 | 27 | 1030.0 |
| 20260903204548 | 78 | 210 | 1.0 | 5.0 | 0.00 | 0.00 | 0.00 | 27 | 1030.2 |
| 20260903203050 | 82 | 200 | 0.0 | 1.0 | 0.00 | 0.00 | 0.00 | 20 | 1030.4 |
| 20260903201543 | 82 | 215 | 0.0 | 1.0 | 0.00 | 0.00 | 0.00 | 20 | 1030.4 |
| 20260903200040 | 81 | 319 | 0.0 | 1.0 | 0.00 | 0.00 | 0.00 | 20 | 1030.6 |
| 20260903194543 | 81 | 344 | 0.0 | 4.0 | 0.00 | 0.00 | 0.00 | 23 | 1030.8 |
| 20260903193037 | 81 | 207 | 2.0 | 4.0 | 0.00 | 0.00 | 0.00 | 23 | 1031.0 |
| 20260903191531 | 80 | 205 | 2.0 | 5.0 | 0.00 | 0.00 | 0.00 | 23 | 1031.3 |
| 20260903190029 | 80 | 215 | 1.0 | 6.0 | 0.00 | 0.00 | 0.00 | 24 | 1031.5 |
| 20260903184527 | 79 | 209 | 0.0 | 4.0 | 0.00 | 0.00 | 0.00 | 27 | 1031.7 |
| 20260903183020 | 77 | 206 | 0.0 | 3.0 | 0.00 | 0.00 | 0.00 | 27 | 1032.1 |
| 20260903181516 | 76 | 175 | 1.0 | 4.0 | 0.00 | 0.00 | 0.00 | 30 | 1032.4 |
| 20260903180015 | 77 | 194 | 1.0 | 4.0 | 0.00 | 0.00 | 0.00 | 28 | 1032.6 |
| 20260903174513 | 76 | 174 | 0.0 | 1.0 | 0.00 | 0.00 | 0.00 | 26 | 1032.8 |
| 20260903173012 | 76 | 169 | 0.0 | 5.0 | 0.00 | 0.00 | 0.00 | 25 | 1032.9 |
| 20260903171510 | 77 | 208 | 0.0 | 1.0 | 0.00 | 0.00 | 0.00 | 25 | 1033.0 |
| 20260903170011 | 76 | 355 | 0.0 | 1.0 | 0.00 | 0.00 | 0.00 | 26 | 1033.0 |
| 20260903164504 | 74 | 346 | 0.0 | 7.0 | 0.00 | 0.00 | 0.00 | 28 | 1033.0 |
| 20260903163008 | 74 | 199 | 0.0 | 1.0 | 0.00 | 0.00 | 0.00 | 29 | 1033.0 |
| 20260903161600 | 72 | 191 | 0.0 | 0.0 | 0.00 | 0.00 | 0.00 | 34 | 1032.8 |
| 20260903160057 | 71 | 191 | 0.0 | 3.0 | 0.00 | 0.00 | 0.00 | 36 | 1032.9 |
| 20260903154558 | 70 | 290 | 1.0 | 3.0 | 0.00 | 0.00 | 0.00 | 37 | 1032.9 |
| 20260903153050 | 67 | 346 | 0.0 | 0.0 | 0.00 | 0.00 | 0.00 | 45 | 1033.0 |
| 20260903151546 | 65 | 360 | 0.0 | 0.0 | 0.00 | 0.00 | 0.00 | 53 | 1033.2 |
| 20260903150053 | 62 | 5 | 0.0 | 0.0 | 0.00 | 0.00 | 0.00 | 57 | 1033.5 |
| 20260903144540 | 60 | 5 | 0.0 | 0.0 | 0.00 | 0.00 | 0.00 | 62 | 1033.8 |
| 20260903143034 | 56 | 5 | 0.0 | 0.0 | 0.00 | 0.00 | 0.00 | 63 | 1034.1 |
| 20260903141530 | 53 | 5 | 0.0 | 0.0 | 0.00 | 0.00 | 0.00 | 72 | 1034.2 |
| 20260903140035 | 51 | 5 | 0.0 | 0.0 | 0.00 | 0.00 | 0.00 | 68 | 1034.1 |
| 20260903134528 | 49 | 5 | 0.0 | 0.0 | 0.00 | 0.00 | 0.00 | 72 | 1034.0 |
| 20260903133032 | 48 | 5 | 0.0 | 0.0 | 0.00 | 0.00 | 0.00 | 71 | 1033.9 |
| 20260903131526 | 48 | 5 | 0.0 | 0.0 | 0.00 | 0.00 | 0.00 | 71 | 1033.7 |
| 20260903130025 | 47 | 5 | 0.0 | 0.0 | 0.00 | 0.00 | 0.00 | 69 | 1033.8 |
| 20260903124524 | 47 | 5 | 0.0 | 0.0 | 0.00 | 0.00 | 0.00 | 68 | 1033.5 |
| 20260903123022 | 47 | 5 | 0.0 | 0.0 | 0.00 | 0.00 | 0.00 | 69 | 1033.4 |
| 20260903121543 | 47 | 5 | 0.0 | 0.0 | 0.00 | 0.00 | 0.00 | 70 | 1033.2 |
| 20260903120018 | 48 | 5 | 0.0 | 0.0 | 0.00 | 0.00 | 0.00 | 69 | 1033.2 |
| 20260903114517 | 48 | 5 | 0.0 | 0.0 | 0.00 | 0.00 | 0.00 | 68 | 1033.1 |
| 20260903113016 | 48 | 5 | 0.0 | 0.0 | 0.00 | 0.00 | 0.00 | 68 | 1033.1 |
| 20260903111514 | 48 | 5 | 0.0 | 0.0 | 0.00 | 0.00 | 0.00 | 68 | 1033.0 |
| 20260903110013 | 48 | 5 | 0.0 | 0.0 | 0.00 | 0.00 | 0.00 | 68 | 1033.0 |
| 20260903104512 | 48 | 5 | 0.0 | 0.0 | 0.00 | 0.00 | 0.00 | 69 | 1033.1 |
| 20260903103011 | 49 | 5 | 0.0 | 0.0 | 0.00 | 0.00 | 0.00 | 70 | 1032.8 |
| 20260903101509 | 49 | 5 | 0.0 | 0.0 | 0.00 | 0.00 | 0.00 | 69 | 1033.0 |
| 20260903100019 | 49 | 5 | 0.0 | 0.0 | 0.00 | 0.00 | 0.00 | 70 | 1032.9 |
| 20260903094507 | 49 | 5 | 0.0 | 0.0 | 0.00 | 0.00 | 0.00 | 71 | 1032.9 |
| 20260903093006 | 49 | 5 | 0.0 | 0.0 | 0.00 | 0.00 | 0.00 | 72 | 1032.7 |
| 20260903091503 | 49 | 5 | 0.0 | 0.0 | 0.00 | 0.00 | 0.00 | 73 | 1032.7 |
| 20260903090002 | 50 | 5 | 0.0 | 0.0 | 0.00 | 0.00 | 0.00 | 73 | 1032.8 |
| 20260903084604 | 50 | 5 | 0.0 | 0.0 | 0.00 | 0.00 | 0.00 | 74 | 1032.8 |
| 20260903083058 | 50 | 5 | 0.0 | 0.0 | 0.00 | 0.00 | 0.00 | 76 | 1032.8 |
| 20260903081554 | 51 | 5 | 0.0 | 0.0 | 0.00 | 0.00 | 0.00 | 75 | 1032.6 |
| 20260903080052 | 52 | 5 | 0.0 | 0.0 | 0.00 | 0.00 | 0.00 | 74 | 1032.5 |
| 20260903074549 | 52 | 5 | 0.0 | 0.0 | 0.00 | 0.00 | 0.00 | 73 | 1032.5 |
| 20260903073054 | 53 | 5 | 0.0 | 0.0 | 0.00 | 0.00 | 0.00 | 73 | 1032.6 |
| 20260903071546 | 53 | 5 | 0.0 | 0.0 | 0.00 | 0.00 | 0.00 | 72 | 1032.7 |
| 20260903070042 | 54 | 5 | 0.0 | 0.0 | 0.00 | 0.00 | 0.00 | 73 | 1032.8 |
| 20260903064538 | 54 | 5 | 0.0 | 0.0 | 0.00 | 0.00 | 0.00 | 72 | 1033.0 |
| 20260903063034 | 55 | 5 | 0.0 | 0.0 | 0.00 | 0.00 | 0.00 | 72 | 1033.0 |
| 20260903061530 | 56 | 5 | 0.0 | 0.0 | 0.00 | 0.00 | 0.00 | 71 | 1033.1 |
| 20260903060027 | 57 | 5 | 0.0 | 0.0 | 0.00 | 0.00 | 0.00 | 70 | 1032.7 |
| 20260903054530 | 57 | 5 | 0.0 | 0.0 | 0.00 | 0.00 | 0.00 | 71 | 1032.7 |
| 20260903053026 | 58 | 5 | 0.0 | 0.0 | 0.00 | 0.00 | 0.00 | 71 | 1032.9 |
| 20260903051525 | 59 | 5 | 0.0 | 0.0 | 0.00 | 0.00 | 0.00 | 70 | 1032.8 |
| 20260903050024 | 59 | 5 | 0.0 | 0.0 | 0.00 | 0.00 | 0.00 | 69 | 1032.8 |
| 20260903044527 | 59 | 5 | 0.0 | 0.0 | 0.00 | 0.00 | 0.00 | 68 | 1032.8 |
| 20260903043027 | 60 | 5 | 0.0 | 0.0 | 0.00 | 0.00 | 0.00 | 67 | 1033.2 |
| 20260903041523 | 59 | 13 | 0.0 | 0.0 | 0.00 | 0.00 | 0.00 | 67 | 1033.4 |
| 20260903040023 | 59 | 13 | 0.0 | 0.0 | 0.00 | 0.00 | 0.00 | 69 | 1033.5 |
| 20260903034522 | 59 | 13 | 0.0 | 0.0 | 0.00 | 0.00 | 0.00 | 66 | 1033.4 |
| 20260903033027 | 60 | 13 | 0.0 | 0.0 | 0.00 | 0.00 | 0.00 | 66 | 1033.5 |
| 20260903031527 | 60 | 13 | 0.0 | 0.0 | 0.00 | 0.00 | 0.00 | 63 | 1033.1 |
| 20260903030023 | 60 | 13 | 0.0 | 0.0 | 0.00 | 0.00 | 0.00 | 66 | 1032.6 |
| 20260903024521 | 60 | 14 | 0.0 | 0.0 | 0.00 | 0.00 | 0.00 | 70 | 1032.7 |
| 20260903023019 | 61 | 14 | 0.0 | 0.0 | 0.00 | 0.00 | 0.00 | 68 | 1032.9 |
| 20260903021521 | 63 | 14 | 0.0 | 0.0 | 0.00 | 0.00 | 0.00 | 62 | 1033.0 |
| 20260903020025 | 64 | 13 | 0.0 | 7.0 | 0.00 | 0.00 | 0.00 | 58 | 1032.6 |
| 20260903014516 | 66 | 348 | 0.0 | 5.0 | 0.00 | 0.00 | 0.00 | 48 | 1032.3 |
| 20260903013017 | 67 | 205 | 0.0 | 0.0 | 0.00 | 0.00 | 0.00 | 48 | 1031.9 |
| 20260903011515 | 68 | 205 | 0.0 | 0.0 | 0.00 | 0.00 | 0.00 | 45 | 1031.8 |
| 20260903010015 | 69 | 205 | 0.0 | 1.0 | 0.00 | 0.00 | 0.00 | 44 | 1031.6 |
| 20260903004514 | 69 | 205 | 0.0 | 0.0 | 0.00 | 0.00 | 0.00 | 44 | 1031.7 |
| 20260903003014 | 70 | 205 | 0.0 | 0.0 | 0.00 | 0.00 | 0.00 | 42 | 1031.4 |
| 20260903001514 | 71 | 205 | 0.0 | 0.0 | 0.00 | 0.00 | 0.00 | 39 | 1031.2 |
| 20260903000033 | 72 | 205 | 0.0 | 0.0 | 0.00 | 0.00 | 0.00 | 37 | 1031.3 |
| 20260902234512 | 73 | 207 | 0.0 | 0.0 | 0.00 | 0.00 | 0.00 | 37 | 1031.3 |
| 20260902233013 | 74 | 207 | 0.0 | 0.0 | 0.00 | 0.00 | 0.00 | 35 | 1031.3 |
| 20260902231509 | 74 | 207 | 0.0 | 2.0 | 0.00 | 0.00 | 0.00 | 34 | 1031.5 |
| 20260902230009 | 74 | 208 | 0.0 | 0.0 | 0.00 | 0.00 | 0.00 | 35 | 1031.7 |
| 20260902224509 | 74 | 208 | 0.0 | 0.0 | 0.00 | 0.00 | 0.00 | 35 | 1031.6 |
| 20260902223019 | 74 | 208 | 0.0 | 2.0 | 0.00 | 0.00 | 0.00 | 34 | 1031.5 |